Regional Weather Roundup
Issued by NWS

Home | Current Version | Previous Version | Text Only | Print | Product List | Glossary On
Versions: 1 2 3 4 5 6 7 8 9 10 11 12 13 14 15 16 17 18 19 20 21 22 23 24 25 26 27 28 29 30 31 32 33 34 35 36 37 38 39 40 41 42 43 44 45 46 47 48 49 50
661
ASUS43 KTOP 270608
RWRKS

WEATHER ROUNDUP FOR KANSAS
NATIONAL WEATHER SERVICE GOODLAND KS
100 AM CDT MON MAR 27 2017

NOTE:  "FAIR" INDICATES FEW OR NO CLOUDS BELOW 12,000 FEET WITH NO
SIGNIFICANT WEATHER AND/OR OBSTRUCTIONS TO VISIBILITY.

KSZ001>006-013>018-027>032-041>047-270700-
NORTHWEST KANSAS

CITY           SKY/WX    TMP DP  RH WIND       PRES   REMARKS
GOODLAND       FOG       37  37 100 SW10      29.93F VSB 1/4 WCI  30
6HR MIN TEMP:  35; 6HR MAX TEMP:  47;

HAYS             N/A     44  43  96 NW8       29.91F
HILL CITY      CLOUDY    44  44 100 NW7       29.93R
6HR MIN TEMP:  43; 6HR MAX TEMP:  47;

RUSSELL        CLOUDY    46  45  96 N5        29.90S
6HR MIN TEMP:  46; 6HR MAX TEMP:  47;

$$

KSZ061>065-074>080-084>089-270700-
SOUTHWEST KANSAS

CITY           SKY/WX    TMP DP  RH WIND       PRES   REMARKS
DODGE CITY     CLOUDY    44  43  96 N9        29.93R
6HR MIN TEMP:  44; 6HR MAX TEMP:  47; 6HR PCP:  0.02;

ELKHART          N/A     37  29  73 NW8         N/A
GARDEN CITY    PTCLDY    39  38  96 NW9       29.95S
6HR MIN TEMP:  39; 6HR MAX TEMP:  45;

GREAT BEND     CLOUDY    46  45  93 N10       29.89F
LIBERAL        MOCLDY    43  36  75 N7        29.96F
PRATT          CLOUDY    44  43  97 N13       29.88S
6HR MIN TEMP:  43; 6HR MAX TEMP:  46; 6HR PCP:  0.19;

$$

KSZ066>073-081>083-090>101-270700-
SOUTHEAST KANSAS

CITY           SKY/WX    TMP DP  RH WIND       PRES   REMARKS
CHANUTE        RAIN      51  49  92 E23G29    29.78F FOG
6HR MIN TEMP:  51; 6HR MAX TEMP:  59; 6HR PCP:  0.34;

COFFEYVILLE    TSTM      54  52  93 NE17      29.77F
6HR MIN TEMP:  54; 6HR MAX TEMP:  62; 6HR PCP:  0.52;

HUTCHINSON     LGT RAIN  47  46  97 N10       29.87R
6HR MIN TEMP:  47; 6HR MAX TEMP:  51; 6HR PCP:  0.34;

MEDICINE LODGE   N/A     47  45  93 N8        29.86R
NEWTON         CLOUDY    47  46  97 N13         N/A
PARSONS        RAIN      54  51  90 NE12G23   29.78F
6HR MIN TEMP:  53; 6HR MAX TEMP:  62; 6HR PCP:  0.30;

WICHITA INTL   CLOUDY    50  48  93 NE10      29.83R
6HR MIN TEMP:  50; 6HR MAX TEMP:  54; 6HR PCP:  0.28;

WICHITA JABRA  MOCLDY    48  47  96 NE9       29.82S
6HR MIN TEMP:  48; 6HR MAX TEMP:  53;

WICHITA MCCONL CLOUDY    49  47  94 N13       29.82R
WINFIELD       CLOUDY    51  48  89 N7        29.81R
6HR MIN TEMP:  51; 6HR MAX TEMP:  65; 6HR PCP:  0.47;

$$

KSZ007>012-019>026-033>040-048>060-102>105-270700-
NORTHEAST KANSAS

CITY           SKY/WX    TMP DP  RH WIND       PRES   REMARKS
CONCORDIA      CLOUDY    46  45  96 NE7       29.89F
6HR MIN TEMP:  46; 6HR MAX TEMP:  47; 6HR PCP:  0.14;

EMPORIA        CLOUDY    48  48 100 NE8       29.83S FOG
6HR MIN TEMP:  47; 6HR MAX TEMP:  50; 6HR PCP:  0.53;

LAWRENCE       LGT RAIN  48  46  93 NE6       29.91S FOG
6HR MIN TEMP:  48; 6HR MAX TEMP:  53; 6HR PCP:  0.26;

MANHATTAN      CLOUDY    47  45  93 E12       29.88F
6HR MIN TEMP:  47; 6HR MAX TEMP:  49; 6HR PCP:  0.24;

MARYSVILLE     CLOUDY    45  43  93 NE6       29.89F
OLATHE IND     RAIN      47  46  97 N8        29.91R FOG
6HR MIN TEMP:  47; 6HR MAX TEMP:  52; 6HR PCP:  0.20;

OLATHE EXE     HVY RAIN  47  47 100 N6        29.90R FOG
6HR MIN TEMP:  47; 6HR MAX TEMP:  52; 6HR PCP:  0.07;

SALINA         CLOUDY    49  46  90 N8        29.89R
6HR MIN TEMP:  49; 6HR MAX TEMP:  50; 6HR PCP:  0.10;

TOPEKA BILLARD RAIN      47  47 100 NE3       29.91R
6HR MIN TEMP:  47; 6HR MAX TEMP:  51; 6HR PCP:  0.43;

TOPEKA FORBES  RAIN      48  46  93 NE9       29.88F FOG
6HR MIN TEMP:  48; 6HR MAX TEMP:  52; 6HR PCP:  0.55;

$$




USA.gov is the U.S. government's official web portal to all federal, state and local government web resources and services.